Location: Coffee Ditch
(40.9640°N, 122.7500°W)
Time: 01:57:34
(UTC+00:00)

Cosmos 1602 Rocket - Pass Details

Date: 17 December 2025
Orbit: 596 x 626 km, 82.5° (Epoch: 16 January)

Event Time Altitude Azimuth Distance (km) Brightness Sun altitude
Rises 13:00:12 0° 165° (SSE) 2,896 7.3 -27.4°
Reaches altitude 10° 13:02:33 10° 157° (SSE) 1,994 6.5 -26.9°
Maximum altitude 13:06:36 36° 91° (E) 1,000 5.1 -26.2°
Drops below altitude 10° 13:10:39 10° 25° (NNE) 2,003 6.3 -25.4°
Sets 13:13:00 0° 17° (NNE) 2,910 7.1 -25.0°
